"Pseudo-MPEC" for P10OSPX

Created 2019 Jun 12 21:08:41 UT using Find_Orb

Click here for an explanation of pseudo-MPECs

 
 Astrometry: 
     P10OSPX  C2019 06 09wOPED8Qi7Astrometry,5\JN/fDEiG?YCs,JlHj]E?3D=Lu-=[ByF51
     P10OSPX  C2019 06 09_J.LISopredacted;LNmE[1o'Y9?XYRWP$,]AhZ@M*(yS[H#bwK-F51
     P10OSPX  C2019 06 0926WmJp2\)e9ZCFclickqe4Q_a6h;C#=!enM*N@T:#8YpL#CBhereF51
     P10OSPX  C2019 06 09*O[Fe#ab'XcFMis-`forWexplanation52P]$/TPfpsbUHx!g!bPF51

Station data:
(F51) Pan-STARRS 1, Haleakala  (N20.707235 W156.255910)  US/Hawaii.
   Observers N. Primak, A. Schultz, S. Watters, J. Thiel, T. Goggia. Measurer
   PS1 Science Consortium. 1.8-m Ritchey-Chrétien + CCD.

Orbital elements:  P10OSPX
   Perihelion 2019 May 22.983147 +/- 41.3 TT = 23:35:43 (JD 2458626.483147)
Epoch 2019 Jun 10.0 TT = JDT 2458644.5   Earth MOID: 0.3230   Ma: 0.0307
M   4.53721812 +/- 55               (J2000 ecliptic)          AutoNEOCP
n   0.25183189 +/- 0.487            Peri.   82.33763 +/- 90
a   2.48348893 +/- 3.32             Node   187.54483 +/- 43
e   0.4729554 +/- 0.247             Incl.    6.86024 +/- 49
P   3.91                   H 21.1   G  0.15   U 12.3  SR
q 1.30890938 +/- 0.488    Q 3.65806849 +/- 20.4
From 4 observations 2019 June 9 (50.6 min); mean residual 0".10
Residuals in arcseconds: 
190609 F51  .00   .08+    190609 F51  .05-  .23-    
190609 F51  .01+  .00     190609 F51  .01-  .14+    

Ephemerides (geocentric):
Date (UTC) HH   RA              Dec         delta   r     elong  mag " sig PA
---- -- -- --  -------------   -----------  ------ ------ -----  --- ---- ---
2019 06 12 21  22 01 16.668   +03 49 23.92  .60733 1.3265 107.0 22.4  46d   1
2019 06 12 22  22 01 21.806   +03 49 58.39  .60725 1.3266 107.0 22.4  46d   1
2019 06 12 23  22 01 26.940   +03 50 32.83  .60718 1.3267 107.0 22.4  46d   1
2019 06 13 00  22 01 32.070   +03 51 07.23  .60711 1.3267 107.0 22.4  47d   1
2019 06 13 01  22 01 37.196   +03 51 41.60  .60703 1.3268 107.0 22.4  47d   1
2019 06 13 02  22 01 42.318   +03 52 15.94  .60696 1.3269 107.0 22.4  47d   1
2019 06 13 03  22 01 47.436   +03 52 50.25  .60689 1.3269 107.0 22.4  47d   1
2019 06 13 04  22 01 52.550   +03 53 24.53  .60681 1.3270 107.1 22.4  48d   1
2019 06 13 05  22 01 57.660   +03 53 58.77  .60674 1.3271 107.1 22.4  48d   1
2019 06 13 06  22 02 02.766   +03 54 32.98  .60667 1.3272 107.1 22.4  48d   1
2019 06 13 07  22 02 07.868   +03 55 07.16  .60659 1.3272 107.1 22.4  49d   1
2019 06 13 08  22 02 12.966   +03 55 41.31  .60652 1.3273 107.1 22.4  49d   1
2019 06 13 09  22 02 18.060   +03 56 15.42  .60645 1.3274 107.1 22.4  49d   1
2019 06 13 10  22 02 23.150   +03 56 49.50  .60637 1.3274 107.1 22.4  50d   1
2019 06 13 11  22 02 28.237   +03 57 23.55  .60630 1.3275 107.2 22.4  50d   1
2019 06 13 12  22 02 33.319   +03 57 57.57  .60623 1.3276 107.2 22.4  50d   1
2019 06 13 13  22 02 38.397   +03 58 31.56  .60616 1.3277 107.2 22.4  50d   1
2019 06 13 14  22 02 43.471   +03 59 05.51  .60608 1.3277 107.2 22.4  50d   1
2019 06 13 15  22 02 48.542   +03 59 39.43  .60601 1.3278 107.2 22.4  50d   1
2019 06 13 16  22 02 53.608   +04 00 13.31  .60594 1.3279 107.2 22.4  50d   1
2019 06 13 17  22 02 58.670   +04 00 47.17  .60586 1.3279 107.3 22.4  50d   1
2019 06 13 18  22 03 03.728   +04 01 20.99  .60579 1.3280 107.3 22.4  51d   1
2019 06 13 19  22 03 08.783   +04 01 54.78  .60572 1.3281 107.3 22.4  51d   1
2019 06 13 20  22 03 13.833   +04 02 28.53  .60565 1.3282 107.3 22.4  51d   1
2019 06 13 21  22 03 18.879   +04 03 02.26  .60557 1.3282 107.3 22.4  51d   1
2019 06 13 22  22 03 23.922   +04 03 35.95  .60550 1.3283 107.3 22.4  51d   1
2019 06 13 23  22 03 28.960   +04 04 09.60  .60543 1.3284 107.3 22.4  51d   1
2019 06 14 00  22 03 33.994   +04 04 43.23  .60536 1.3285 107.4 22.4  51d   1
2019 06 14 01  22 03 39.024   +04 05 16.82  .60528 1.3285 107.4 22.4  52d   1
2019 06 14 02  22 03 44.051   +04 05 50.38  .60521 1.3286 107.4 22.4  52d   1
2019 06 14 03  22 03 49.073   +04 06 23.91  .60514 1.3287 107.4 22.4  52d   1
2019 06 14 04  22 03 54.091   +04 06 57.40  .60507 1.3287 107.4 22.4  53d   1
2019 06 14 05  22 03 59.105   +04 07 30.86  .60500 1.3288 107.4 22.4  53d   1
2019 06 14 06  22 04 04.116   +04 08 04.29  .60492 1.3289 107.5 22.4  53d   1
2019 06 14 07  22 04 09.122   +04 08 37.68  .60485 1.3290 107.5 22.4  53d   1
2019 06 14 08  22 04 14.124   +04 09 11.04  .60478 1.3290 107.5 22.4  53d   1
2019 06 14 09  22 04 19.122   +04 09 44.37  .60471 1.3291 107.5 22.4  54d   1
2019 06 14 10  22 04 24.116   +04 10 17.66  .60464 1.3292 107.5 22.4  54d   1
2019 06 14 11  22 04 29.106   +04 10 50.92  .60456 1.3293 107.5 22.4  54d   1
2019 06 14 12  22 04 34.092   +04 11 24.15  .60449 1.3293 107.5 22.4  54d   1
2019 06 14 13  22 04 39.074   +04 11 57.35  .60442 1.3294 107.6 22.4  55d   1
2019 06 14 14  22 04 44.052   +04 12 30.51  .60435 1.3295 107.6 22.4  55d   1
2019 06 14 15  22 04 49.026   +04 13 03.64  .60428 1.3296 107.6 22.4  55d   1
2019 06 14 16  22 04 53.996   +04 13 36.73  .60421 1.3296 107.6 22.4  55d   1
2019 06 14 17  22 04 58.962   +04 14 09.79  .60413 1.3297 107.6 22.4  55d   1
2019 06 14 18  22 05 03.924   +04 14 42.82  .60406 1.3298 107.6 22.4  56d   1
2019 06 14 19  22 05 08.882   +04 15 15.82  .60399 1.3299 107.7 22.4  56d   1
2019 06 14 20  22 05 13.836   +04 15 48.78  .60392 1.3299 107.7 22.4  56d   1